Starlink 31822

operational
NORAD ID: 59752 Int'l Des: 2024-090 Owner: SPXS Country: US Constellation: starlink
LEOCIRCULAR

About Starlink 31822

Description loading...

Live Position

Loading 3D Globe...

Upcoming Passes

Altitude History

Altitude vs Time

uPlot chart will show altitude changes over time

Two-Line Element Set

1 59752U 24090Y 25312.60769743 .00000263 00000-0 19066-4 0 9995
2 59752 43.0030 147.1786 0001165 269.3476 90.7242 15.27583253 84911
Epoch: Nov 8, 2025 • Age: 44 hours

Current Status

Altitude 483.8 km
Velocity 7.63 km/s
Sub-Earth Point 28.69°N, 38.13°W
Launch Date May 13, 2024
Age 1.4 years
Type internet

Technical Details

Classification Payload
Mass 730.00 kg
Dry Mass 700.00 kg
Total Mass 730.00 kg
Length 0.30 m
Diameter 4.10 m
Span 29.00 m
Shape Box + pan
Manufacturer SPXS
Bus Type Starlink V2M
Phase Status In Orbit
Owner/State SPXS/US

Large Constellations

Loading constellations...